Regional Weather Roundup
Issued by NWS

Home | Current Version | Previous Version | Text Only | Print | Product List | Glossary Off
Versions: 1 2 3 4 5 6 7 8 9 10 11 12 13 14 15 16 17 18 19 20 21 22 23 24 25 26 27

000
ASUS45 KCYS 080310
RWRWY

WYOMING REGIONAL WEATHER ROUNDUP
NATIONAL WEATHER SERVICE CHEYENNE WY
800 PM MST WED DEC 07 2016

NOTE:  "FAIR" INDICATES FEW OR NO CLOUDS BELOW 12,000 FEET
WITH NO SIGNIFICANT WEATHER AND/OR OBSTRUCTIONS TO VISIBILITY.

WYZ001-080400-
YELLOWSTONE NATIONAL PARK

CITY           SKY/WX    TMP DP  RH WIND       PRES   REMARKS
LK YELLOWSTONE   N/A    -12 -16  82 NW3       30.16R
W YELLOWSTONE  NOT AVBL

$$
WYZ002>013-054>058-071-098>099-080400-
NORTHERN WYOMING

CITY           SKY/WX    TMP DP  RH WIND       PRES   REMARKS
JACKSON        CLEAR     -9 -13  84 N9        30.23S WCI -27
CODY           FAIR      -5 -11  75 S5        30.37S WCI -16
GREYBULL       FAIR       3  -4  72 SE5       30.47R WCI  -6
WORLAND        FAIR       1  -3  83 CALM      30.44R
SHERIDAN       FAIR      -4 -10  75 SW3       30.47R
BUFFALO        FAIR      -2 -10  69 CALM      30.38R
GILLETTE       FAIR      -7 -10  87 W8        30.42R WCI -23
HULETT         FAIR       0  -6  78 W7        30.42R WCI -13
NEWCASTLE      FAIR      -6 -11  77 NW7       30.42R WCI -20

$$
WYZ014>020-022>026-101>103-080400-
CENTRAL WYOMING

CITY           SKY/WX    TMP DP  RH WIND       PRES   REMARKS
BIG PINEY      FAIR      -6 -11  79 NW6       30.21R WCI -19
PINEDALE       FAIR     -13 -17  84 NW7       30.21S WCI -29
DUBOIS         CLOUDY    -2  -6  84 NW9       30.16S FOG     WCI -18
LANDER         CLOUDY     2  -3  80 S3        30.30R
RIVERTON       FAIR       2  -3  80 E5        30.32R WCI  -8
CASPER         FAIR     -15 -19  82 CALM      30.35R
DOUGLAS        FAIR      -8 -18  61 NW6       30.39R WCI -21

$$
WYZ021-027>030-104>119-080400-
SOUTHERN WYOMING

CITY           SKY/WX    TMP DP  RH WIND       PRES   REMARKS
EVANSTON       FAIR       8   0  69 N6        30.19R WCI  -2
KEMMERER         N/A      0  -6  78 N8        30.18  WCI -15
FORT BRIDGER   FAIR       7   0  73 SE5       30.23R WCI  -2
ROCK SPRINGS   FAIR       2  -4  76 S7        30.22R WCI -11
DIXON          FAIR      -1  -8  74 E5        30.29R WCI -11
RAWLINS        FAIR     -10 -15  78 CALM      30.23R
SARATOGA       FAIR      -4  -9  77 S5        30.22S WCI -15
LARAMIE        FAIR     -13 -18  78 SW3       30.18R
CHEYENNE       FAIR     -11 -16  78 W7        30.27R WCI -26
TORRINGTON     FAIR      -1  -7  75 NW6       30.43R WCI -13
PINE BLUFFS    FAIR      -9 -15  77 MISG      30.37R

$$




USA.gov is the U.S. government's official web portal to all federal, state and local government web resources and services.